Погода в Кызылжаре

Погода в Кызылжаре : погода сейчас, прогноз погоды и архив. Всё, что Вы хотите узнать о погоде в Кызылжаре!

Поиск расширенной информации на нашем сайте:

Другие новости

Новости СМИ2

Главная страница сайта

Новости сайта

03.07.2017

Напоминаем, что на нашем специализированном сайте Метеоцентр.Азия вы можете получить высокодетализированные автоматические прогнозы погоды по пунктам России, СНГ и мира в авиационном формате (включающие направление и скорость ветра, видимость, явления погоды, количество и форму облачности, нижнюю и верхнюю границу облачности).


Погода в Кызылжаре - сегодня

Время (UTC), дата Ветер
(°,м/с) 
Видим.   Явления Облачность Т
(°С)
Тd
(°С)
f(%) Тe
(°С)
Pmin
(гПа)
dP
(гПа)
Po
(мм)
O2
(г/м3)
Тmin Tmax R s Состояние
почвы
06 20.10.17 230 (ЮЗ) 20000 м  {ливн. осадки}  10/10 600 м 
[Cu hum]
+6.6 +5.7 94 +4  1020.3  0.8  733  287  +5.4       
09 20.10.17 210 (ЮЗ) 20000 м    9/9 2000 м средняя 
[Ac trans]
+8.4 +6.3 87 +7  1019.6  -0.5  732  285           
12 20.10.17 200 (Ю) 20000 м    8/0 верхняя 
[Ci sp]
+12 +4.9 62 +11  1018.1  -1.2  732  282           
15 20.10.17 200 (Ю) н/о    5/0 верхняя 
[Ci fib]
+8.4 +6.5 88 +7  1018.4  -0.3  731  285    +12.7       
18 20.10.17 210 (ЮЗ) н/о    6/0 верхняя 
[Ci fib]
+6.3 +4.7 89 +6  1017.6  -1.5  731  287    +12.7       
21 20.10.17 190 (Ю) н/о    8/0 верхняя 
[Ci fib]
+7.1 +5.3 88 +7  1016.4  -1.3  730  286           
00 21.10.17 200 (Ю) н/о    8/0 верхняя 
[Ci fib]
+5.5 +3.1 85 +5  1015.5  -1.5  729  287           
03 21.10.17 210 (ЮЗ) 20000 м    5/0 верхняя 
[Ci fib]
+4.2 +1.2 81 +5  1015.6  -0.3  729  289           
06 21.10.17 220 (ЮЗ) 20000 м    4/0 верхняя 
[Ci ing]
+9.5 +5.4 76 +10  1013.7  -1.2  728  283  +4.2         
09 21.10.17 230 (ЮЗ) 20000 м    8/8 1000 м 
[Cu med, cong]
+13.2 +5.7 60 +14  1011.5  -2.1  727  278           
12 21.10.17 240 (ЮЗ) 20000 м    9/9 1000 м 
[Cu med, cong]
+12.2 +4.7 60 +13  1011.5  -0.3  727  280           
18 21.10.17 240 (ЮЗ) н/о  слаб. ливневой дождь  10/10 600 м кучево-дожд. 
[Cb cap]
+9 +9 100 +9  1012.6  727  282    +13.4     
21 21.10.17 230 (ЮЗ) н/о  {ливн. осадки}  10/10 600 м кучево-дожд. 
[Cb calv]
+8.8 +6.9 88 +9  1012.9  0.3  728  283           
00 22.10.17 350 (С) н/о  {ливн. осадки}  10/10 1000 м 
[Sc]
+5.5 +5.5 100 +4  1014.5  1.3  728  287           
06 22.10.17 тихо ()   20000 м    8/8 1000 м 
[Cu med, cong]
+6.9 +4.2 83 +7  1017.4  2.3  731  286  +4.7       
09 22.10.17 270 (З) 20000 м    5/5 600 м кучево-дожд. 
[Cb cap]
+8.9 +2.6 65 +10  1017.2  0.1  731  285           
12 22.10.17 320 (СЗ) 20000 м    4/3 1000 м средняя 
[Cu hum|Ac trans]
+9.3 +3.1 65 +10  1017.8  0.8  731  284           
15 22.10.17 030 (СВ) н/о    1/1 2000 м средняя 
[Ac trans]
+4.8 +1.3 78 +6  1019.8  1.6  732  290    +10.6       
18 22.10.17 040 (СВ) н/о    ясно 
+3.1 +0.2 81 +4  1020  732  292    +10.6       
21 22.10.17 050 (СВ) н/о    ясно 
+0.8 -1.5 85 +1  1019.5  -1.2  731  294           
00 23.10.17 040 (СВ) н/о    ясно 
+1.2 -0.4 89 +2  1018.7  -0.9  731  293           
03 23.10.17 050 (СВ) 20000 м    5/0 верхняя 
[Ci fib]
+0.6 -0.2 94 +1  1017.9  -1.1  730  293           
06 23.10.17 140 (ЮВ) 20000 м    6/0 верхняя 
[Ci fib]
+9.4 +7.1 86 +10  1015.2  -1.6  729  283  +0.6         
09 23.10.17 190 (Ю) 20000 м    6/0 верхняя 
[Ci fib]
+13.5 +8.6 72 +14  1012.4  -2.8  728  278           
12 23.10.17 190 (Ю) 20000 м    8/0 верхняя 
[Ci fib]
+11.9 +4.6 61 +12  1011.2  -1.9  727  280           
Время (UTC), дата Ветер
(°,м/с) 
Видим.   Явления Облачность Т
(°С)
Тd
(°С)
f(%) Тe
(°С)
Pmin
(гПа)
dP
(гПа)
Po
(мм)
O2
(г/м3)
Тmin Tmax R s Состояние
почвы

Для получения пояснительной информации подведите курсор к названию столбца.

ПОГОДА в Кызылжаре - архив

Всё, что Вы хотите узнать о погоде в Кызылжаре - удобно и подробно!

Выберите нужную дату (начиная с 1 января 2015* года) и нажмите кнопку "Найти".
Будут отображены архивные сводки погоды по пункту Кызылжар, начиная с указанной даты.


Отображать данные в формате CSV (для использования в таблицах Excel)


Внимание! Наш архив погоды предназначен исключительно для личного некоммерческого использования в познавательных целях. Если Вам необходимы официальные справки о состоянии погоды (для производственных, юридических, коммерческих и т.п. целей), обращайтесь в органы Росгидромета.

*Примечание: данная дата относится к архиву по метеостанциям СССР (Россия, СНГ, Балтия).
Архив по метеостанциям Зарубежной Европы и Азии (кроме Китая) хранится 10 дней, по другим регионам земного шара (Китай, Африка, Америка, Австралия, Океания) - 1 день.

Кызылжар - район местоположения метеостанции


Название, широта, долгота, высота метеостанции:
Кызылжар 48.3°ш. 69.6°д. 361 м над ур. моря [Казахстан]

Дополнительная информация

В oтличие oт бoльшинства пoгoдных сайтoв мы публикуем пoдрoбную метеoинфoрмацию в детальнoм прoфессиoнальнoм фoрмате.

Характеристики температуры и влажнoсти вoздуха измеряются на высoте 2 м в тени вдали oт зданий и деревьев.
Скoрoсть ветра измеряется на высoте 10 м (на урoвне рoста челoвека скoрoсть ветра ниже в 1.5-2 раза). Если метеoстанция нахoдится в гoрoде или в лесу, тo скoрoсть ветра занижена на 2-4 м/с пo сравнению с oткрытым местoм. Скoрoсть ветра над акватoриями крупных рек и oзёр, а также на вершинах хoлмoв на 2-5 м/с выше, чем в oбычных услoвиях.
Атмoсфернoе давление в разных тoчках местнoсти мoжет значительнo oтличаться oт давления на метеoстанции, в зависимoсти oт услoвий рельефа (при пoдъёме на 10 м давление пoнижается примернo на 1 мм рт.ст.).